Regional Weather Roundup
Issued by NWS Raleigh/Durham, NC

Home | Current Version | Previous Version | Text Only | Print | Product List | Glossary On
Versions: 1 2 3 4 5 6 7 8 9 10 11 12 13 14 15 16 17 18 19 20 21 22 23 24 25 26 27 28 29 30 31 32 33 34 35 36 37 38 39 40 41 42 43 44 45 46 47 48 49 50
000
ASUS42 KRAH 012210
RWRRAH
NORTH CAROLINA WEATHER ROUNDUP
NATIONAL WEATHER SERVICE RALEIGH NC
600 PM EDT SAT AUG 01 2015

NOTE: "FAIR" INDICATES FEW OR NO CLOUDS BELOW 12,000 FEET WITH NO
SIGNIFICANT WEATHER AND/OR OBSTRUCTIONS TO VISIBILITY.

NCZ001-053-055-056-065-067-012300-
WESTERN NORTH CAROLINA

CITY           SKY/WX    TMP DP  RH WIND       PRES   REMARKS
ASHEVILLE      SUNNY     85  51  31 N12       30.02F
JEFFERSON      SUNNY     78  47  33 NW7       30.07S
MORGANTON      SUNNY     90  48  23 N7        29.99S
HICKORY        SUNNY     90  50  25 NW10      29.94S
RUTHERFORDTON  SUNNY     90  53  28 N8        29.94S
MOUNT AIRY     SUNNY     89  54  30 W8        29.95F
BOONE          SUNNY     77  52  41 NW6       30.08S
$$

NCZ021-022-025-041-071-084-088-012300-
CENTRAL NORTH CAROLINA

CITY           SKY/WX    TMP DP  RH WIND       PRES   REMARKS
CHARLOTTE      MOSUNNY   93  52  24 VRB6      29.91S
GREENSBORO     MOSUNNY   90  52  27 NW13      29.91S
WINSTON-SALEM  SUNNY     89  51  27 VRB7      29.93S
RALEIGH-DURHAM MOSUNNY   91  59  33 SW5       29.88S
FORT BRAGG     MOSUNNY   91  61  36 VRB7      29.85S
FAYETTEVILLE   CLOUDY    93  61  34 E7        29.86S
BURLINGTON     SUNNY     91  58  32 SW7       29.89S
LAURINBURG     PTSUNNY   94  58  29 VRB3      29.87S
$$

NCZ011-015-027-028-043-044-047-080-103-012300-
NORTHEASTERN NORTH CAROLINA

CITY           SKY/WX    TMP DP  RH WIND       PRES   REMARKS
ROCKY MT-WILSO MOSUNNY   93  56  28 MISG      29.86F
GREENVILLE     SUNNY     91  63  38 SW7       29.88S
WASHINGTON     MOSUNNY   90  63  40 W6        29.86S
ELIZABETH CITY SUNNY     87  67  51 SE8       29.86S
MANTEO         PTSUNNY   85  73  67 S13       29.87S
CAPE HATTERAS  PTSUNNY   84  76  76 SW7       29.89S
$$

NCZ078-087-090-091-093-098-101-012300-
SOUTHEASTERN NORTH CAROLINA

CITY           SKY/WX    TMP DP  RH WIND       PRES   REMARKS
LUMBERTON      CLOUDY    94  60  32 W5        29.85F
GOLDSBORO      MOSUNNY   93  68  43 CALM      29.84S HX  97
KINSTON        SUNNY     91  55  29 CALM      29.87S
KENANSVILLE    MOSUNNY   91  59  34 CALM      29.87S
NEW BERN       MOSUNNY   92  62  36 W7        29.87S
CHERRY POINT   MOSUNNY   85  76  74 S13       29.88S
BEAUFORT       MOSUNNY   83  78  85 SW14      29.88S
JACKSONVILLE   MOSUNNY   86  75  69 S8        29.86S HX  95
WILMINGTON     CLOUDY    84  73  69 E8        29.88R
$$



USA.gov is the U.S. government's official web portal to all federal, state and local government web resources and services.